Theta_e
320 321 322 323 325 324 327 326 328 335 329 321 323 327 324 324 327 325 327 327 326 326 326 327 328 329 335 341 339 339 338 341 345 343 344 340 337 339 340 340 339 336 336 337 335 326 321 320 318 323 329 331 333 334 335 334 333 332 333 334 336 337 337 336 336 334 334 336 336 336 334 332 332 333 332 332 332 331 331 331 330 331 331 331 331 331 331 331 331 331 331 330 330 330 329 328 328
320 321 321 321 325 322 330 331 327 331 323 317 320 321 323 326 327 325 327 328 326 328 330 330 328 329 334 338 337 341 341 338 339 340 340 338 338 339 340 340 338 335 336 338 333 323 321 318 317 324 330 332 332 333 334 334 334 333 333 334 335 336 336 336 335 333 333 335 335 335 334 332 332 332 332 332 332 331 331 331 331 331 331 331 331 331 330 330 331 330 331 330 330 330 329 328 327
320 320 321 321 325 321 328 331 325 324 319 318 318 318 323 328 329 327 328 329 330 332 331 330 329 327 332 338 338 343 342 337 337 337 338 338 338 338 340 339 337 336 337 337 331 323 320 318 317 324 330 332 331 331 332 333 335 333 333 334 335 336 336 335 334 333 333 334 334 334 333 333 331 331 332 332 331 331 330 330 330 330 330 330 330 330 330 330 330 330 331 330 329 329 329 328 327
320 321 322 321 326 326 327 328 329 324 317 319 317 316 326 329 328 328 329 329 332 332 328 330 331 325 332 341 338 340 340 337 337 337 337 338 338 339 340 338 336 337 338 338 332 324 320 318 318 324 330 331 331 332 333 334 334 332 333 334 335 335 335 335 332 331 332 333 333 333 333 332 331 330 332 331 331 331 331 330 330 330 330 330 330 330 330 330 330 330 330 329 328 328 329 328 327
321 321 321 321 325 329 329 328 334 326 316 321 317 319 327 326 327 326 327 328 330 330 327 329 329 324 333 338 337 340 339 337 337 336 337 337 338 339 339 338 337 338 339 338 332 323 320 319 319 324 329 330 332 333 334 334 333 332 334 334 334 335 335 334 332 330 331 332 332 332 331 331 330 330 330 330 331 331 331 332 330 330 329 329 330 330 330 330 330 330 330 329 328 328 329 328 327
321 320 321 321 321 325 327 324 330 326 318 325 320 322 326 322 325 324 325 326 326 329 327 327 327 330 336 336 336 339 337 337 337 336 338 337 338 339 339 337 337 338 338 338 331 323 320 319 319 324 328 331 332 333 333 334 333 333 334 334 334 335 335 334 332 331 331 331 331 331 330 330 330 329 329 329 330 331 331 332 331 330 330 330 330 330 330 330 330 330 329 329 328 327 327 327 326
321 322 326 325 324 325 326 322 328 327 318 322 322 323 324 322 324 323 326 325 324 327 326 327 327 332 335 335 337 337 336 337 336 337 338 337 338 338 338 337 337 338 338 337 331 323 320 319 318 321 327 331 332 332 333 333 334 333 334 334 334 335 335 334 332 331 331 330 330 330 330 330 329 329 329 330 330 332 331 330 330 329 330 331 330 330 330 330 330 329 329 329 328 327 326 325 324
321 321 330 331 330 329 325 324 329 328 317 318 323 323 323 323 323 323 325 324 324 325 326 325 324 331 332 336 340 337 336 337 336 337 337 337 338 338 338 337 337 338 337 337 332 324 320 320 318 318 324 330 332 332 332 332 332 333 334 333 334 335 334 334 332 331 330 329 329 329 329 329 328 328 329 330 331 331 331 331 330 329 329 330 330 330 330 330 329 328 328 327 327 326 324 323 324
320 319 329 331 330 328 325 328 326 322 319 319 321 322 323 322 322 322 322 322 323 324 325 323 323 333 335 338 339 336 336 336 337 337 337 337 337 337 337 336 336 337 338 337 334 326 321 320 318 317 319 326 331 332 331 331 330 332 332 333 333 333 332 332 331 331 329 329 329 328 328 328 327 328 329 330 331 331 331 330 330 329 328 327 328 328 329 329 328 327 327 326 326 325 323 324 326
322 320 328 329 326 325 326 330 324 319 320 320 320 321 322 320 320 320 320 321 323 324 323 321 329 338 337 339 339 336 336 336 337 337 336 336 336 336 336 335 335 337 337 337 335 328 322 320 319 317 316 320 327 330 330 330 330 332 332 332 332 331 331 330 331 330 329 329 329 328 329 328 327 328 329 330 330 331 330 329 328 328 327 325 325 325 326 326 326 326 326 326 326 323 322 324 326
326 323 327 328 323 322 326 327 321 320 319 319 320 320 321 321 319 318 319 321 323 326 323 321 330 339 339 341 341 336 336 336 338 337 337 337 336 335 335 335 335 337 337 337 336 331 323 321 320 317 316 317 323 327 329 329 330 331 331 331 331 330 330 330 331 329 329 329 328 328 328 329 328 327 328 329 330 330 330 329 328 328 326 325 324 324 325 325 326 326 326 325 324 322 321 322 325
326 328 328 325 326 327 328 324 318 320 319 320 321 319 321 321 318 317 319 321 323 324 323 321 324 336 341 343 342 336 336 336 337 337 337 337 336 336 335 335 336 337 337 336 337 334 327 321 321 319 317 317 319 324 326 328 329 330 331 331 329 329 329 329 329 327 328 329 327 326 327 328 329 328 327 328 329 329 330 329 329 328 327 326 324 324 324 325 325 325 325 324 324 323 322 322 323
325 331 327 324 333 330 325 322 320 322 319 321 321 319 321 321 319 317 319 320 322 321 321 320 322 337 343 341 340 336 336 336 337 336 337 338 337 336 336 336 337 337 338 337 336 336 331 322 322 320 318 317 317 319 322 325 327 327 329 329 327 327 327 325 324 325 328 328 327 326 326 326 328 328 326 325 327 328 329 329 329 329 328 325 323 322 322 323 324 324 325 325 325 324 323 323 323
326 334 328 326 335 327 323 321 319 321 317 319 320 320 321 320 319 317 320 320 321 321 319 319 327 342 344 339 339 337 336 336 336 335 336 338 338 338 338 338 338 338 338 338 336 336 334 325 322 322 320 318 317 317 318 321 322 322 325 327 326 327 326 322 320 322 325 324 323 323 325 326 327 327 325 324 326 328 329 329 329 328 326 322 319 318 318 319 320 322 323 323 323 323 324 324 324
326 334 329 327 332 326 327 324 322 323 318 320 320 320 321 318 318 317 321 323 321 320 319 319 324 335 340 342 342 336 335 335 336 335 336 338 338 339 339 339 339 339 339 338 337 336 336 329 323 322 322 320 318 317 317 317 318 319 322 325 326 327 326 323 321 321 321 321 319 319 321 325 327 327 326 325 325 326 327 328 328 328 326 323 319 316 316 317 317 319 319 320 321 322 323 323 323
328 333 328 326 331 327 329 326 324 324 319 321 320 320 321 317 319 318 317 321 319 317 320 321 320 328 336 342 341 334 335 335 335 335 335 337 338 339 339 340 340 340 339 339 338 337 337 332 327 323 322 323 321 319 318 317 317 318 320 322 325 327 326 323 321 320 319 318 317 317 317 321 325 327 326 324 323 324 326 326 327 326 324 322 319 316 316 316 316 316 316 317 319 320 320 320 320
328 331 329 326 331 329 328 324 324 325 321 320 319 320 321 317 318 316 314 317 318 320 327 327 327 335 340 339 336 334 335 334 335 335 335 338 338 339 339 340 340 340 340 339 339 338 338 335 332 328 325 324 325 323 319 318 317 317 317 318 321 325 326 324 321 319 318 318 321 322 322 321 321 324 325 323 322 322 323 323 323 324 322 320 318 316 316 316 316 316 316 317 318 319 320 320 319
324 331 330 326 328 327 327 324 324 324 320 319 318 320 321 318 318 316 315 316 319 323 327 332 336 337 336 335 335 335 335 334 335 335 335 337 338 338 338 339 339 339 339 340 339 339 339 337 335 333 331 329 330 329 324 321 319 317 317 316 318 320 323 322 320 318 317 322 326 327 327 326 323 321 320 320 321 320 320 319 319 321 319 318 318 317 316 316 317 316 318 321 321 322 323 322 321
327 332 328 332 332 324 321 319 320 321 318 319 319 319 320 319 318 316 315 316 320 324 324 332 340 338 335 335 335 335 335 335 335 335 334 335 336 336 337 338 338 339 339 339 339 339 339 338 337 336 335 333 333 332 330 328 325 320 318 317 316 317 318 319 319 317 319 326 328 327 328 328 326 324 319 317 319 319 319 318 317 318 317 316 317 318 316 316 317 316 319 323 323 323 323 323 323
328 328 326 338 333 318 317 317 318 320 318 320 319 318 319 318 317 316 316 316 319 324 325 331 339 340 338 335 334 335 335 335 335 335 334 333 334 335 336 337 338 338 338 339 339 339 339 339 338 336 336 335 334 333 333 333 330 325 322 320 318 317 316 317 319 318 321 327 328 328 328 328 326 326 322 315 315 316 315 316 315 315 315 314 316 317 316 316 316 315 318 321 322 322 324 323 323
322 325 329 333 324 317 318 316 317 318 318 319 318 318 318 317 316 316 316 317 317 319 322 328 336 339 338 336 334 335 335 335 335 335 334 333 334 334 335 336 337 337 337 338 339 339 339 338 338 337 336 335 334 333 332 333 331 329 328 325 324 321 318 320 322 321 324 327 329 328 327 328 325 326 323 315 316 317 313 313 312 314 314 314 315 317 317 316 316 315 315 318 320 321 322 322 323
319 324 326 322 319 320 317 316 317 317 318 319 318 317 316 316 315 316 316 318 317 316 318 322 332 337 337 336 335 334 334 334 335 334 334 334 333 334 335 335 336 335 335 337 338 338 338 338 338 337 336 335 335 333 331 331 330 329 332 330 329 328 325 326 325 324 324 325 329 328 327 328 324 325 322 315 320 322 318 315 313 315 316 315 315 317 318 318 317 317 316 317 319 319 319 320 321
319 321 320 317 319 320 316 317 318 316 318 319 319 317 316 317 315 317 317 318 318 315 316 319 329 335 336 335 334 335 334 333 334 334 334 334 333 333 334 335 335 335 334 336 338 338 338 338 338 337 337 336 336 333 330 332 331 330 333 332 331 331 330 330 328 327 325 323 328 329 329 328 323 324 323 317 322 324 322 321 319 319 318 317 316 315 317 318 316 316 317 318 318 318 317 316 317
319 319 318 317 317 318 316 316 316 318 319 318 318 316 316 318 316 317 317 316 316 316 318 321 329 334 335 334 334 334 334 334 334 334 334 334 333 333 334 334 334 335 334 334 336 338 338 338 338 337 337 336 336 334 331 332 332 331 333 333 331 331 331 331 330 330 328 325 326 328 328 326 321 325 326 322 322 324 323 323 323 322 320 320 318 316 316 317 316 315 315 317 317 317 316 315 314
318 319 318 316 316 316 315 316 317 318 317 317 318 317 317 318 316 316 316 316 316 319 324 327 331 334 335 335 335 333 334 334 334 334 334 334 334 334 334 334 333 334 334 334 334 336 337 337 337 337 337 336 336 334 332 332 332 331 333 333 331 331 330 331 331 330 330 329 327 326 325 325 324 325 327 325 323 323 325 324 324 324 323 322 320 318 317 317 316 314 314 316 316 316 315 314 315
318 318 317 316 315 314 314 316 317 317 316 317 318 317 316 315 315 315 315 315 316 320 329 333 334 335 336 335 334 333 333 334 334 334 334 334 335 334 334 334 334 334 334 334 334 335 337 337 337 337 337 336 336 335 333 332 332 331 332 333 332 331 330 330 331 330 330 330 330 328 325 325 327 327 326 327 325 324 324 325 325 324 324 323 321 319 319 317 316 314 315 315 315 315 315 315 315
319 317 316 315 315 314 315 316 316 317 316 316 319 317 315 314 314 315 315 314 317 321 327 332 335 336 335 334 334 333 333 334 334 335 335 334 334 335 335 335 335 335 334 334 334 335 336 336 336 336 337 337 335 335 334 333 333 332 331 332 332 331 331 330 330 330 330 330 330 330 327 326 326 327 327 327 327 325 324 325 325 324 323 322 321 321 320 319 318 316 316 316 315 316 315 316 316
317 316 315 314 314 315 315 316 315 316 315 316 319 316 315 315 315 318 316 313 317 322 322 326 332 334 334 335 334 333 333 334 335 334 335 334 335 335 335 335 335 335 335 334 334 334 335 336 336 336 336 336 336 335 334 334 333 332 332 332 332 331 331 330 330 330 330 330 330 329 329 328 327 327 327 327 327 327 326 325 325 324 324 322 322 322 322 322 320 318 317 316 316 316 316 316 316
315 316 316 314 315 315 315 316 316 316 315 316 317 315 316 316 317 319 316 313 316 321 321 321 325 327 329 333 333 333 333 334 334 334 335 335 335 336 335 336 336 335 335 335 334 334 334 335 335 335 336 336 336 336 334 333 333 333 332 332 332 332 332 331 330 330 330 330 330 329 329 329 328 327 327 327 327 327 326 326 326 326 325 324 324 324 324 323 322 321 319 318 317 316 315 316 315
315 315 316 316 315 315 315 315 316 316 315 316 314 315 322 320 317 316 314 314 315 320 322 320 321 321 324 328 331 332 330 331 333 334 335 335 336 336 336 336 336 336 335 334 335 334 334 334 335 335 336 336 336 336 335 334 334 334 332 332 332 332 333 332 330 330 330 330 329 330 329 329 329 328 327 327 327 327 327 326 326 326 326 326 325 325 324 324 324 323 322 320 319 318 317 318 317
316 314 315 319 317 315 316 315 316 316 313 315 313 315 324 320 314 314 313 315 315 319 322 320 320 319 322 327 330 331 329 329 333 334 335 335 336 336 336 336 336 336 335 334 335 334 334 334 335 335 336 336 336 336 336 335 334 334 333 332 332 332 333 333 332 330 330 330 330 330 329 329 329 329 328 327 327 328 327 327 327 326 326 326 326 325 325 325 324 324 324 322 322 322 321 322 321
316 316 316 317 316 316 317 315 317 317 314 314 313 315 320 316 313 314 314 315 315 317 321 321 321 319 323 328 330 333 330 328 331 333 334 335 335 336 336 336 336 336 335 334 334 334 334 334 335 335 335 335 336 336 336 335 335 335 334 333 332 332 333 333 332 332 330 330 330 329 329 329 329 329 328 328 327 327 327 327 327 327 327 326 326 326 325 325 325 325 325 324 324 324 324 324 323
315 321 322 318 317 317 316 316 316 318 315 313 314 315 317 315 314 315 314 314 315 316 317 319 319 319 324 328 330 332 332 330 330 331 333 334 335 336 336 336 335 335 335 335 334 334 334 334 335 335 334 334 334 335 335 335 335 335 334 334 333 332 332 332 332 332 331 330 330 329 329 329 328 328 328 328 328 328 327 327 327 327 327 327 326 326 326 325 325 325 326 325 324 323 323 323 323
315 321 324 320 317 316 316 317 317 317 316 313 314 315 317 316 314 314 315 314 314 315 315 315 317 319 322 326 329 330 332 334 332 329 333 335 335 336 335 335 335 335 335 335 335 334 334 334 334 335 334 333 333 334 335 335 335 335 335 335 334 334 332 332 331 331 332 332 331 330 330 329 329 328 328 327 327 327 327 327 327 327 327 327 326 326 326 326 326 326 326 326 324 323 322 322 323
320 319 321 319 316 316 317 317 317 318 316 315 315 314 317 317 314 314 314 314 314 315 315 314 315 318 320 323 326 326 328 332 330 328 332 334 334 335 335 335 334 335 335 334 335 335 334 334 334 334 334 334 333 333 334 334 335 335 335 335 335 334 334 333 332 332 331 331 331 330 330 330 329 329 328 327 327 327 327 327 327 327 327 327 326 326 326 326 326 326 326 326 325 324 323 323 323
323 322 325 323 317 316 318 317 316 316 315 316 316 314 315 316 315 316 314 314 314 314 315 315 314 315 316 320 322 323 325 327 326 327 331 332 333 334 334 334 334 334 334 334 335 335 335 334 334 334 334 334 333 334 334 333 334 334 334 334 334 334 334 334 333 332 332 331 331 330 330 330 330 330 329 328 329 328 327 327 327 326 326 326 326 326 326 326 326 327 326 326 326 325 324 324 323
320 320 323 323 318 316 317 316 315 315 316 316 316 315 315 315 316 317 316 314 314 314 315 316 316 315 314 317 318 319 321 319 319 325 329 331 333 333 334 334 334 334 334 334 334 335 335 335 334 334 334 333 334 334 335 334 333 333 333 333 333 333 334 334 334 333 332 332 332 331 331 331 331 331 330 330 330 329 328 328 328 328 326 325 326 326 326 326 327 327 327 327 326 325 325 324 323
318 318 318 319 320 318 315 315 315 314 315 316 316 315 315 316 315 316 314 313 314 315 315 316 318 317 316 317 317 317 320 318 317 321 325 328 331 332 333 334 334 334 334 333 334 334 335 335 334 334 334 333 334 333 334 334 333 332 332 332 332 332 332 333 332 332 332 332 332 332 332 332 332 332 331 330 330 329 329 329 329 328 327 325 326 327 327 327 327 327 327 326 326 325 324 324 324
317 318 317 317 321 319 314 314 315 314 314 315 317 315 315 317 316 315 315 314 314 314 315 316 318 320 319 319 319 320 324 324 321 320 321 327 331 331 333 334 333 333 334 333 333 334 334 334 334 334 334 333 333 333 333 333 333 332 331 331 331 331 331 331 331 330 330 330 331 332 332 332 332 332 331 331 330 330 330 330 329 329 328 327 328 327 328 328 327 328 327 326 325 324 323 324 324
318 319 316 317 319 318 315 314 314 315 313 314 316 316 317 318 318 318 315 313 314 314 314 316 318 320 321 322 322 324 327 325 322 320 317 320 326 329 331 333 333 333 333 334 333 334 334 334 334 334 334 334 333 333 333 332 332 332 331 330 330 330 330 330 330 330 330 330 331 331 332 332 332 332 331 331 330 330 331 330 329 329 329 329 329 329 328 328 328 328 327 326 325 324 324 324 324
319 320 317 317 318 318 317 315 315 314 313 314 315 314 320 320 315 317 316 312 314 316 316 317 318 321 325 326 322 323 327 325 323 323 317 313 317 322 327 329 331 332 333 334 334 334 334 334 334 334 334 334 333 333 333 332 331 331 331 331 331 330 330 330 330 331 331 331 331 332 332 332 332 332 331 331 331 330 330 330 329 329 329 328 329 329 329 329 329 328 328 327 326 325 325 325 324
317 321 322 318 316 320 319 317 318 314 313 316 312 311 325 329 316 313 314 314 315 315 316 316 317 321 324 323 323 325 327 326 325 324 316 310 312 315 317 320 323 327 330 331 333 333 334 334 334 334 334 334 334 333 333 332 331 331 331 331 331 330 330 331 331 331 331 331 331 331 331 331 331 331 330 330 331 331 330 330 330 330 329 329 329 329 329 329 329 328 328 328 327 326 325 324 323
316 317 321 318 318 323 319 317 321 318 314 315 313 311 319 325 324 317 314 314 316 314 315 317 318 322 324 324 329 331 329 326 324 322 315 310 311 312 312 313 314 317 321 324 327 330 331 333 334 334 334 334 334 333 333 332 331 331 331 331 330 330 330 330 331 330 330 330 330 329 329 330 329 329 328 328 329 329 329 329 329 329 329 328 329 329 329 329 328 328 328 327 327 326 325 323 323
319 319 319 318 321 324 318 318 327 326 319 315 318 318 312 317 328 321 313 313 315 315 316 318 321 324 326 327 331 333 331 328 326 325 320 313 312 312 311 312 311 311 313 314 319 325 327 330 332 333 333 333 334 333 333 332 331 331 331 330 330 330 330 330 329 329 329 328 328 327 327 328 328 327 327 326 327 327 326 327 327 327 326 326 326 326 326 326 326 327 327 326 326 325 324 323 323
321 321 320 320 321 323 321 322 328 326 320 317 320 317 312 324 333 318 311 314 314 317 318 318 322 325 326 328 328 329 329 328 328 327 321 314 313 314 313 312 312 311 310 310 315 322 325 327 329 331 332 332 333 333 332 332 331 331 331 330 330 330 330 329 328 327 327 327 326 326 326 327 326 326 326 326 325 325 324 324 324 324 324 324 324 323 323 324 324 324 324 324 324 324 324 324 324
320 322 322 324 324 324 323 328 331 320 316 324 326 316 311 325 333 316 309 315 314 316 318 316 319 323 325 327 326 325 325 325 326 320 314 312 313 314 313 313 312 312 311 310 313 319 323 326 328 329 330 331 331 332 332 331 331 331 330 330 329 329 329 328 327 326 326 326 326 325 325 325 325 325 324 323 322 321 320 320 320 320 321 320 320 320 320 321 321 321 321 321 322 322 322 323 322
321 325 324 324 327 331 333 337 335 318 319 335 330 320 313 317 328 321 312 316 316 314 317 317 319 322 325 327 326 325 324 323 323 318 312 311 313 313 313 313 312 312 312 310 312 316 320 323 327 328 328 329 330 330 330 330 330 329 329 328 328 328 327 327 326 325 325 325 324 324 323 322 321 320 320 319 319 318 318 318 318 317 317 317 317 317 316 316 317 317 318 319 319 319 319 319 319
326 328 324 319 324 335 337 333 325 317 327 335 323 317 316 315 324 324 316 317 316 314 318 321 321 323 325 326 325 325 324 322 322 320 315 311 311 313 313 314 314 314 313 311 310 314 319 322 325 326 326 327 328 328 328 328 327 327 326 327 327 326 325 325 325 324 323 322 321 320 320 319 319 318 318 318 318 317 318 318 317 317 317 317 317 316 315 314 314 314 314 315 315 316 316 316 316
327 324 320 321 323 326 327 325 323 324 324 320 315 316 317 317 321 319 316 316 315 316 318 320 320 323 325 324 323 323 322 322 320 320 319 312 309 312 314 316 317 316 316 315 313 315 319 321 323 323 324 324 325 326 326 325 325 325 325 325 325 324 324 323 323 323 322 320 319 319 319 318 318 317 317 317 317 316 316 316 315 315 315 315 315 315 314 314 313 312 312 312 311 312 312 313 313
318 315 317 325 326 318 317 320 322 324 321 315 313 316 318 319 318 316 316 315 317 318 318 318 319 321 323 322 322 322 321 321 320 319 320 314 309 311 314 317 318 317 318 318 317 317 319 320 321 322 322 323 323 324 324 324 324 324 324 323 323 323 323 322 322 321 320 318 318 317 317 316 315 315 315 315 313 312 311 310 309 309 309 310 310 310 311 311 311 312 311 311 310 310 310 310 311
318 319 318 324 328 324 322 323 323 323 322 316 311 315 322 319 313 314 313 312 316 319 319 319 319 319 321 321 322 322 320 320 319 318 317 312 309 312 313 315 317 317 318 319 319 319 319 321 321 321 321 322 322 323 323 323 323 323 323 322 322 322 321 320 319 318 317 316 316 315 315 314 314 313 312 310 308 307 307 306 306 306 306 306 306 306 307 307 308 309 309 308 308 309 308 308 308
321 321 320 321 326 332 328 325 331 328 320 317 314 320 326 317 310 312 311 312 315 317 319 320 320 320 321 321 321 321 320 318 318 318 316 310 308 311 312 312 314 314 316 318 319 319 319 319 319 319 320 321 321 321 321 321 320 321 321 320 320 319 318 317 315 315 314 314 314 313 312 311 310 308 307 306 306 306 306 306 306 305 305 305 305 304 304 304 304 304 304 304 304 305 304 304 304
322 319 322 324 322 329 325 315 320 322 319 320 316 318 322 314 312 312 310 314 315 314 318 319 320 321 319 320 320 319 320 318 317 317 314 308 307 309 310 311 312 311 313 315 317 318 318 317 317 317 318 318 318 319 318 317 317 317 317 316 316 316 315 314 313 312 311 311 310 309 308 307 306 305 305 305 305 305 304 304 304 303 303 302 302 302 302 301 301 301 301 301 301 301 301 301 301
323 320 322 321 316 323 325 316 315 316 320 325 316 315 319 315 316 316 310 314 314 313 316 316 317 319 319 319 319 318 318 317 316 315 310 306 306 307 308 309 310 310 311 312 313 315 316 316 316 315 316 316 315 315 314 314 314 314 313 314 314 313 313 312 310 309 308 308 307 306 306 305 305 305 305 304 303 303 302 302 301 301 300 300 300 299 299 299 299 299 299 299 299 299 298 298 298
320 322 320 320 319 322 322 318 317 315 316 322 317 315 319 317 318 318 313 314 314 313 315 316 316 317 317 319 318 317 316 315 314 315 311 305 305 306 307 308 309 309 309 310 310 311 312 313 313 313 313 312 312 312 312 311 311 311 311 311 312 311 309 308 307 306 306 306 305 305 305 304 304 303 303 302 301 300 300 299 298 298 298 297 297 297 297 297 297 297 297 297 296 296 295 295 295
315 317 315 318 324 325 322 317 319 320 318 321 317 314 321 323 320 320 318 318 315 312 314 315 315 315 316 317 317 316 315 315 313 314 311 305 304 306 307 307 307 307 308 308 308 309 309 309 310 310 310 310 309 309 309 309 308 308 308 308 308 307 306 305 305 305 305 305 304 304 303 303 302 301 300 299 298 297 297 296 296 295 295 295 295 295 295 295 295 295 294 294 294 294 294 294 294
316 316 313 315 316 319 322 318 321 325 324 325 318 315 330 332 317 317 320 318 314 311 313 313 313 314 316 316 316 314 314 314 312 313 310 304 304 306 306 306 306 306 306 307 307 307 307 307 308 308 308 308 307 306 306 306 306 305 305 305 305 304 304 305 305 305 304 303 303 301 300 300 298 297 297 296 295 295 295 294 294 294 294 294 294 293 293 293 293 293 293 292 292 292 293 293 293
315 315 314 316 316 317 318 315 319 321 321 330 325 318 332 329 311 313 316 313 312 310 311 314 312 313 316 315 315 314 313 313 312 312 308 303 303 305 305 306 306 305 306 305 305 305 305 306 306 306 306 306 305 304 304 304 304 304 304 304 304 304 304 304 303 302 301 300 299 298 297 296 296 295 295 294 294 294 294 294 293 293 293 293 293 292 292 292 292 292 292 292 292 292 292 292 292
Wind_Speed
3 3 4 6 7 6 4 2 2 3 2 1 3 1 1 1 3 4 4 4 4 2 1 3 4 4 5 8 10 9 6 2 1 3 2 6 21 23 20 22 20 19 19 16 14 12 12 12 12 13 15 17 18 17 14 12 11 10 11 12 13 14 14 15 16 16 16 16 15 15 15 17 18 16 15 17 18 18 18 18 17 17 18 18 18 17 17 17 18 18 17 17 17 17 18 19 20
3 5 6 7 5 2 2 2 3 3 3 2 3 3 3 2 5 5 5 5 3 2 2 5 7 9 10 11 9 7 8 6 2 3 5 17 24 20 23 22 20 21 19 16 14 13 13 13 13 14 17 18 18 17 15 13 12 11 12 12 13 14 14 15 16 16 16 16 16 16 16 17 17 16 15 16 17 18 17 17 17 17 17 17 17 17 17 17 17 17 17 17 17 16 18 19 20
4 7 8 8 2 2 1 3 2 1 2 3 4 2 3 7 5 6 7 7 6 5 4 6 7 6 7 8 6 5 3 3 6 7 8 20 19 17 24 21 21 21 18 18 15 14 13 14 15 16 18 18 17 16 15 12 11 12 12 12 13 13 14 16 16 16 16 16 16 16 16 16 16 16 16 15 15 17 17 17 17 17 17 16 17 17 17 17 17 17 16 16 16 16 17 19 20
6 7 10 8 3 1 2 2 2 2 0 4 2 3 3 8 7 7 6 6 6 5 4 4 5 2 7 11 6 5 4 2 6 8 7 16 19 22 25 22 23 20 18 18 15 15 14 14 15 16 18 17 17 16 15 13 12 11 11 12 13 14 15 15 15 16 16 16 15 15 16 16 16 16 15 15 15 16 17 17 17 17 16 16 16 17 16 16 16 16 16 15 15 15 16 18 19
6 7 9 3 2 1 2 1 0 3 2 4 3 2 4 9 8 7 5 4 5 5 3 3 3 2 7 6 3 3 4 4 7 9 10 17 25 26 24 24 23 19 19 17 16 15 14 15 14 16 17 17 17 17 15 13 12 12 11 11 12 14 15 14 15 15 16 16 16 16 16 16 16 16 15 15 15 15 15 15 15 15 15 16 16 16 16 16 16 16 15 15 14 14 15 17 18
8 9 6 1 1 1 2 0 1 1 4 4 5 3 5 8 8 8 6 5 5 6 5 4 4 4 5 2 3 3 2 6 7 10 17 24 28 26 24 23 21 19 19 17 16 15 15 15 14 15 17 17 17 16 15 14 13 13 13 12 12 13 14 14 15 16 16 16 16 16 16 16 16 15 15 15 15 14 14 14 14 14 15 15 16 16 15 15 15 15 15 14 14 14 13 15 16
9 8 3 1 2 1 3 2 3 2 3 2 8 7 6 7 8 9 7 4 5 5 5 4 7 7 3 1 4 5 2 10 11 15 23 28 28 26 24 22 21 20 18 17 16 15 15 14 13 14 15 17 16 16 16 16 15 13 12 13 13 13 13 14 15 16 16 16 16 15 16 16 15 15 15 14 14 13 13 13 14 15 16 16 15 15 15 15 14 14 14 14 13 13 13 15 16
6 2 1 3 2 2 2 2 3 3 2 3 7 9 9 9 7 7 6 4 1 1 3 3 7 7 3 3 4 6 8 15 17 22 28 29 29 26 23 22 22 21 19 18 16 15 15 13 13 13 14 15 15 15 15 17 16 13 12 12 13 13 13 13 14 15 16 16 15 15 15 14 14 14 14 14 13 13 12 13 14 15 15 15 15 14 14 14 13 13 13 13 12 12 13 15 16
3 1 1 3 0 2 1 0 2 3 1 4 6 9 9 9 7 7 6 5 4 3 2 3 7 6 2 6 5 3 10 19 25 28 29 28 28 26 23 21 21 21 20 18 17 15 15 13 12 12 13 14 14 15 15 17 16 14 13 12 11 11 11 12 13 14 15 16 15 15 14 13 14 14 13 14 13 13 12 12 12 12 12 12 12 13 13 12 12 12 12 12 12 12 13 14 15
3 1 1 2 1 2 4 2 2 2 2 4 5 7 9 7 7 7 8 6 5 5 3 4 8 7 6 6 3 3 9 19 28 29 27 26 24 24 23 20 20 20 20 19 17 16 15 13 11 12 12 13 14 14 15 17 16 14 14 13 11 10 11 11 12 13 14 15 14 14 14 13 13 13 12 12 12 12 11 9 9 9 10 11 11 12 12 12 12 11 11 11 11 11 12 12 12
3 2 2 2 1 1 4 2 3 2 2 3 2 1 6 7 7 7 8 6 4 6 2 4 9 8 7 4 1 5 14 18 25 27 25 24 21 23 22 20 18 18 19 20 18 16 15 13 12 11 11 12 13 14 15 16 15 13 13 13 12 11 11 11 11 11 12 13 13 13 14 13 12 12 11 11 12 12 11 9 10 10 10 10 10 11 11 11 11 11 10 9 10 10 11 10 10
1 3 4 2 1 3 3 4 5 2 2 3 1 3 3 7 8 7 9 7 4 5 2 2 7 7 6 3 2 7 17 16 21 26 24 22 20 21 21 20 18 17 18 19 18 16 15 14 13 12 11 12 12 13 14 16 14 13 13 12 11 11 11 10 9 9 10 12 11 11 12 13 13 12 10 11 12 12 11 10 10 10 9 8 9 9 10 10 10 10 9 9 9 10 10 10 9
1 2 5 1 3 3 2 4 4 4 2 1 3 3 3 6 6 8 9 7 6 6 2 4 6 7 5 2 1 6 13 16 21 23 22 21 21 21 20 19 17 16 17 18 17 16 14 14 13 13 12 12 12 12 13 14 13 11 12 11 10 10 10 10 9 9 10 10 9 9 10 10 11 11 10 9 10 12 12 11 10 10 9 8 8 9 9 9 9 9 9 9 9 9 9 10 9
2 2 5 1 2 2 2 3 3 5 2 4 3 1 3 4 2 6 9 7 4 5 3 2 6 8 4 2 2 3 10 20 22 21 20 21 22 21 19 18 17 17 17 17 17 16 15 13 14 13 13 13 12 12 11 12 11 10 11 10 10 9 9 9 9 9 9 9 8 8 8 9 9 9 9 9 9 10 11 10 9 9 7 6 7 8 8 9 9 9 8 8 8 9 9 9 8
2 1 4 1 3 3 2 4 4 5 3 4 4 3 5 2 2 6 7 8 1 3 2 4 5 5 5 6 4 6 15 25 24 20 20 22 23 20 18 17 17 17 17 16 16 16 15 14 14 14 13 13 12 11 11 11 11 10 11 10 10 9 8 7 8 8 8 8 7 7 7 9 9 8 8 9 9 9 8 8 7 6 5 4 5 6 8 8 8 8 8 8 9 9 8 8 7
3 2 4 0 2 3 4 4 5 5 3 5 4 4 7 3 2 6 2 6 3 2 3 3 1 3 6 8 9 15 24 28 24 19 19 23 24 22 20 18 18 17 16 16 16 15 15 14 14 13 13 12 11 11 11 10 10 10 11 10 9 9 7 6 7 7 8 8 8 8 7 8 9 8 7 8 9 8 7 6 5 4 3 3 4 6 8 8 8 9 9 9 9 9 8 7 6
3 4 2 2 2 3 4 4 5 5 4 5 4 4 7 2 3 3 1 6 7 4 6 3 4 5 4 9 19 27 29 29 25 19 20 25 25 24 22 21 19 17 16 16 16 15 15 14 13 13 13 12 11 10 10 9 9 9 10 10 9 8 7 6 6 6 7 9 10 10 9 8 7 7 5 6 8 8 7 5 4 4 2 2 3 6 8 8 8 9 10 10 9 9 10 9 8
3 3 2 3 2 3 4 5 6 6 6 6 6 5 8 5 1 2 4 7 7 7 7 5 8 8 8 19 28 30 30 29 25 20 21 25 24 22 23 22 21 19 18 17 17 16 14 14 13 13 13 12 11 9 9 8 8 8 9 9 9 9 8 6 5 6 7 9 10 9 8 7 6 6 3 3 6 7 6 5 4 3 2 2 3 5 7 8 8 8 10 9 9 9 9 9 8
3 3 3 4 4 3 3 4 7 6 8 8 7 6 8 7 6 3 4 6 6 7 5 5 9 8 11 20 27 28 30 28 23 21 21 22 23 21 21 22 22 21 19 19 20 18 15 14 13 13 13 12 10 9 8 7 7 7 7 8 8 9 8 7 6 7 9 10 9 8 6 5 3 4 3 2 4 4 4 3 3 2 2 2 3 5 6 6 6 7 8 8 7 6 6 7 6
2 3 2 5 5 2 5 1 6 8 10 11 7 5 7 6 5 4 5 8 6 7 5 5 8 7 9 13 21 25 26 24 22 21 19 20 22 22 22 22 23 22 21 19 20 19 16 15 14 14 14 14 12 9 8 6 7 7 7 7 7 8 8 8 8 9 11 10 9 6 4 5 2 1 1 1 3 4 3 3 2 2 2 2 3 4 4 4 4 5 5 5 5 4 4 4 3
2 3 4 6 3 1 4 4 2 9 10 10 7 6 7 5 4 4 7 8 3 6 8 9 12 12 11 10 16 21 21 21 19 20 18 18 21 21 22 22 21 21 20 19 19 20 18 16 16 17 17 16 14 11 10 7 7 9 8 7 7 7 7 7 7 8 11 11 9 6 6 7 4 3 2 0 4 4 3 3 3 2 2 2 2 3 3 3 3 3 3 3 2 2 2 1 0
1 4 5 5 3 3 4 4 1 6 9 8 8 8 7 5 4 5 8 7 4 6 7 9 14 16 15 14 16 17 17 18 17 19 18 17 20 21 20 21 20 19 20 20 20 21 19 17 17 19 21 19 15 13 11 8 7 9 8 8 7 7 6 5 5 7 9 11 8 6 8 8 6 4 1 1 5 5 4 2 2 3 3 2 1 2 3 2 1 2 2 2 2 1 1 1 3
1 4 3 3 1 5 3 2 2 5 10 8 7 6 5 6 4 4 6 6 6 6 6 9 15 18 19 19 17 15 14 16 17 20 20 19 20 21 21 22 21 22 22 21 21 21 20 19 19 21 22 20 16 13 12 11 8 8 8 8 6 6 7 5 4 6 6 9 9 7 7 8 8 4 2 3 4 4 2 1 1 2 3 1 1 2 2 1 1 3 3 3 3 3 3 4 4
4 4 1 2 2 3 1 1 1 6 10 7 6 6 5 7 5 3 5 4 5 3 3 12 18 21 21 17 15 15 17 19 19 21 23 21 22 23 23 24 23 23 24 22 22 22 22 21 20 21 22 20 17 14 13 13 11 9 10 10 7 6 8 7 4 5 5 7 9 9 7 7 8 6 3 3 4 3 2 2 1 2 1 2 3 4 4 3 4 5 5 5 5 5 6 6 7
6 5 2 2 2 1 1 3 4 7 7 5 7 6 4 6 5 4 5 5 4 3 8 14 17 18 17 14 13 14 16 19 19 20 22 22 23 23 23 25 24 23 25 24 22 23 23 23 21 21 22 20 17 16 15 15 15 13 13 13 11 9 9 7 6 5 5 5 7 9 9 8 7 6 5 4 5 5 5 4 4 5 5 6 6 5 6 5 6 7 7 7 7 8 8 8 8
7 6 4 4 3 2 2 3 5 5 4 5 8 5 1 3 2 2 6 8 5 6 11 12 13 13 12 11 12 13 14 18 20 20 22 24 24 22 22 26 26 25 26 24 23 25 24 24 22 22 21 21 19 18 17 16 17 16 14 14 14 12 11 10 8 7 7 6 6 7 8 9 8 6 6 6 6 6 8 8 8 8 8 9 9 7 7 7 8 8 8 8 8 9 9 9 9
5 6 5 4 4 3 2 3 4 4 3 5 7 5 1 2 1 2 5 8 6 8 11 10 12 11 11 10 11 14 16 19 23 22 21 23 25 24 23 26 27 27 26 26 25 25 25 26 24 22 22 21 20 20 20 18 17 17 16 15 15 14 14 13 12 9 9 9 7 6 6 8 10 9 8 8 8 7 9 10 11 11 12 12 11 10 9 9 9 9 9 9 10 10 10 10 10
8 9 6 2 3 2 3 4 3 3 3 3 7 4 2 5 1 5 6 7 7 9 10 9 11 10 10 11 10 12 15 20 24 22 20 23 26 27 25 25 28 28 28 28 27 25 24 26 25 23 22 21 21 21 22 20 18 17 18 16 16 16 14 15 16 12 10 10 8 7 6 7 10 12 11 9 9 9 10 11 12 12 13 13 13 12 11 11 10 10 10 11 11 12 12 12 12
9 10 7 1 2 3 3 3 2 3 2 3 6 4 4 2 5 7 7 8 6 9 9 8 9 9 9 11 9 10 14 19 21 22 24 25 26 29 28 26 26 28 30 28 27 26 24 25 25 23 23 22 21 21 22 22 20 18 18 17 16 15 14 14 16 15 13 12 9 9 8 7 8 12 14 11 10 11 12 12 13 13 12 12 13 13 12 12 12 12 12 12 13 14 14 14 14
6 5 6 3 3 1 4 3 2 4 1 2 4 2 5 7 8 7 6 9 7 8 8 7 7 7 8 9 8 9 13 18 20 24 27 27 26 28 29 28 26 25 28 29 28 27 26 25 25 24 23 23 22 22 21 21 22 20 19 18 16 15 14 14 15 16 16 14 13 12 11 10 9 11 15 15 12 13 14 13 13 13 12 12 13 14 14 14 14 14 13 14 15 15 17 16 16
5 2 3 4 4 3 5 2 5 4 1 1 6 3 6 7 7 6 7 8 9 8 7 7 7 6 6 7 8 8 11 18 23 26 28 29 28 28 28 29 28 25 25 28 28 26 26 26 26 26 25 23 23 23 22 21 21 21 19 18 18 16 15 15 15 15 16 15 15 16 14 13 12 11 14 16 15 15 15 15 15 14 13 14 15 15 15 15 16 16 15 16 16 17 18 18 18
4 4 2 2 4 3 3 2 6 5 1 2 5 3 5 5 6 6 5 7 9 9 7 7 7 7 6 6 8 7 8 16 22 25 28 29 30 29 29 29 30 29 25 26 27 26 26 27 27 27 27 25 24 24 23 21 21 21 19 18 19 18 17 16 16 16 16 16 17 17 17 16 15 14 15 15 15 14 15 16 15 15 14 14 16 16 16 17 17 17 17 17 18 19 20 20 20
1 4 3 4 5 3 1 3 3 5 3 1 3 3 3 4 6 7 4 6 7 7 7 8 8 8 7 6 7 7 6 9 13 20 25 28 30 31 30 29 30 31 29 26 26 27 27 27 28 28 27 27 27 25 23 22 21 21 20 19 18 19 19 18 17 17 16 17 17 17 17 17 17 17 16 16 14 14 15 14 14 13 14 15 16 17 18 18 18 19 19 19 20 21 21 22 22
2 3 3 4 5 5 3 2 3 4 4 3 3 3 4 5 5 7 6 6 7 7 7 8 8 8 7 7 6 7 7 7 9 17 25 27 29 30 30 30 29 30 31 28 26 27 28 28 28 28 26 25 26 26 25 24 22 20 20 19 18 19 20 20 19 18 18 17 18 18 18 17 16 16 16 15 15 16 16 16 17 16 16 16 16 18 19 19 19 20 21 21 21 21 22 23 24
4 4 4 2 3 5 5 3 4 5 4 5 5 4 7 7 5 6 6 5 8 9 9 8 8 9 8 8 7 7 8 8 11 20 26 27 28 29 30 29 29 29 31 30 27 26 28 28 27 27 26 24 24 25 25 24 22 20 19 18 18 19 20 20 20 20 19 18 18 18 18 19 18 18 17 15 15 15 15 16 17 16 17 18 18 18 18 19 20 21 23 23 21 21 22 23 25
7 6 5 5 4 3 5 3 3 6 5 4 7 6 7 6 7 7 6 5 7 8 7 6 7 8 8 8 8 8 8 9 14 22 26 26 27 27 28 29 29 30 30 31 29 27 28 29 28 27 27 25 24 25 25 25 23 23 22 21 21 21 21 21 21 21 20 20 20 19 19 20 20 20 18 17 15 14 14 14 13 12 14 16 18 19 20 21 22 23 24 23 23 22 22 23 24
7 6 4 5 6 2 2 2 3 3 5 5 7 6 7 7 8 8 7 5 6 8 7 7 7 7 8 9 8 9 9 8 12 21 24 26 27 26 26 28 28 29 29 30 30 29 29 29 30 29 28 26 26 27 27 27 26 25 25 26 25 24 22 21 20 21 21 20 20 20 20 20 20 20 19 18 17 16 15 14 13 14 13 15 18 18 19 20 21 23 23 23 23 22 22 22 22
5 6 5 4 5 3 2 2 3 1 3 5 3 4 8 8 8 8 6 6 7 9 8 8 8 7 7 9 9 9 6 4 6 14 20 24 26 26 25 27 28 29 30 31 31 31 31 30 30 30 30 29 28 28 29 29 28 27 27 27 27 25 23 22 21 20 20 20 20 20 21 20 20 20 19 18 17 18 18 15 14 16 15 16 18 19 19 19 19 21 22 22 22 21 21 21 20
5 5 6 5 4 3 1 2 2 2 2 3 1 5 9 8 7 7 7 9 8 10 11 10 10 8 7 8 9 7 5 4 5 8 14 20 24 26 25 26 28 29 30 31 31 31 30 31 31 30 31 31 29 28 29 29 29 27 25 24 24 23 22 21 19 17 16 17 18 19 19 19 19 19 19 19 18 18 20 17 16 18 18 19 20 22 23 22 21 22 21 21 20 20 20 20 20
5 5 6 5 4 5 1 2 1 2 2 1 2 2 6 6 5 7 8 9 7 8 10 8 7 9 9 8 7 8 9 8 7 6 10 15 19 22 24 25 26 27 27 29 30 30 31 31 31 30 31 31 30 29 28 28 27 24 23 20 18 18 18 18 17 16 15 15 15 15 16 16 16 16 16 17 17 17 18 17 18 19 19 20 21 24 26 24 22 22 21 21 20 19 21 21 21
3 6 7 5 6 5 3 3 2 3 2 1 4 3 6 4 6 8 6 6 6 7 8 6 4 5 5 4 5 7 9 9 9 8 8 11 16 19 21 22 23 24 25 27 28 30 30 31 31 30 30 30 30 29 28 26 25 24 22 20 18 18 16 15 16 15 14 13 12 13 13 13 13 12 13 14 15 15 16 16 16 17 18 19 20 23 23 21 21 21 22 23 21 20 23 23 21
3 5 7 9 10 6 6 8 6 4 3 2 3 2 6 4 6 10 5 4 6 4 7 9 6 4 5 5 5 5 5 6 7 7 8 11 14 16 17 18 20 22 24 24 25 26 27 29 30 28 28 28 29 29 27 26 26 25 24 23 22 21 18 15 14 13 11 9 9 9 9 9 10 9 10 11 12 13 13 12 13 15 17 17 18 19 20 20 22 23 23 22 20 22 24 22 20
2 4 5 9 10 9 11 10 5 3 3 3 4 5 5 5 4 9 5 7 7 3 5 8 6 5 5 6 5 5 5 4 3 4 7 10 12 14 15 17 19 20 21 21 21 23 24 26 27 27 26 26 27 28 28 27 26 25 25 25 23 21 19 14 12 11 10 9 8 7 7 7 7 6 7 9 10 10 9 9 9 12 14 14 14 15 16 18 19 21 21 20 21 24 23 20 20
3 4 6 11 11 10 11 9 4 3 3 2 3 4 3 4 5 6 3 7 6 5 7 7 6 6 5 5 5 5 6 5 5 4 5 7 11 14 15 16 16 17 18 18 19 20 22 24 25 26 25 24 25 26 28 27 26 25 25 24 22 19 16 12 9 9 9 9 9 7 7 8 8 7 8 8 8 8 8 8 8 8 10 10 11 11 12 13 13 15 16 16 18 20 19 19 20
4 4 7 9 10 9 8 7 4 2 3 1 4 2 2 5 6 4 3 6 6 8 10 9 7 7 6 6 5 5 5 5 5 5 5 7 10 12 13 13 13 14 17 18 18 18 19 21 23 24 23 22 23 24 26 27 25 24 22 21 19 16 13 10 9 9 9 10 9 8 8 8 8 8 9 9 9 10 10 11 11 10 11 12 12 12 12 12 12 14 14 14 15 15 16 17 19
4 4 7 6 6 6 6 6 5 4 3 4 7 2 2 5 5 2 2 3 7 9 9 8 7 7 6 6 5 5 4 4 4 5 7 8 9 11 11 11 11 12 15 17 17 17 18 19 21 23 21 21 21 22 24 25 25 23 20 17 15 13 13 12 10 9 9 10 10 10 9 9 10 10 10 10 10 9 8 8 9 9 11 13 14 14 14 14 14 14 14 14 13 12 13 14 15
6 7 8 7 6 5 4 3 5 4 2 6 6 1 3 2 5 3 4 4 7 7 5 5 6 6 6 6 6 6 5 4 4 5 7 9 9 10 10 10 10 11 12 15 17 17 17 19 20 21 20 19 20 20 21 22 22 21 17 15 14 14 14 14 12 8 7 8 8 8 7 7 7 6 5 5 5 5 4 4 5 5 6 7 8 9 11 12 13 14 14 14 12 11 12 13 14
7 6 6 5 4 4 4 4 3 3 4 6 4 1 3 3 6 5 5 6 6 8 7 8 9 7 7 6 6 6 5 5 5 5 6 8 9 10 10 10 11 11 12 14 17 17 17 19 20 21 19 18 18 19 19 19 18 17 15 14 14 13 13 13 12 9 7 7 6 5 4 3 3 2 2 2 2 2 2 3 4 4 4 4 5 7 8 9 10 11 12 13 13 13 13 14 15
6 6 7 6 2 2 1 2 1 3 5 3 2 1 2 5 7 7 7 7 6 7 8 10 11 9 7 7 6 6 5 5 5 5 5 6 8 10 11 12 13 14 14 14 17 19 19 19 20 20 19 17 18 18 18 18 16 16 16 15 14 13 13 13 12 10 8 6 5 5 4 4 4 3 3 3 3 3 4 5 5 6 6 6 7 8 8 8 9 10 11 11 12 11 12 12 13
5 7 6 5 4 3 3 4 1 2 4 3 2 1 2 4 6 7 8 7 6 6 6 8 10 10 8 7 6 5 5 5 5 5 4 5 8 11 12 13 14 15 15 15 17 19 20 20 20 21 18 17 18 18 19 19 17 16 16 16 16 15 14 12 11 10 9 7 7 6 5 5 5 4 3 2 2 3 4 3 3 3 4 4 5 5 6 7 8 8 9 10 10 11 11 11 12
4 5 6 6 5 5 5 4 3 3 2 2 2 1 4 3 3 6 6 4 4 3 2 5 6 6 7 6 6 6 5 5 5 5 5 6 9 12 13 13 14 15 15 16 16 18 20 21 21 22 20 19 19 20 20 20 18 17 17 17 16 15 14 12 11 10 10 9 8 7 7 6 5 4 2 1 1 2 4 5 6 6 6 6 6 6 6 6 6 7 7 8 8 9 10 11 11
3 3 6 4 5 5 4 3 5 5 1 1 2 3 4 4 4 5 2 3 4 4 5 7 6 5 7 6 6 6 5 5 5 5 5 7 10 13 14 14 14 15 16 17 17 18 19 20 20 21 21 20 19 20 20 19 18 18 17 16 16 15 14 13 11 11 10 9 9 9 8 7 5 5 5 6 7 9 10 10 10 11 11 11 11 11 11 10 10 9 8 8 8 9 10 10 11
1 3 4 5 4 7 5 2 1 4 2 3 2 3 4 3 4 4 2 2 1 2 3 6 6 6 7 6 5 6 5 5 5 5 5 7 11 13 14 15 15 16 17 18 18 18 19 19 20 20 20 19 18 18 18 18 18 17 17 16 16 16 15 14 13 12 11 11 10 9 8 8 8 9 10 11 11 12 12 12 13 13 13 13 13 13 13 12 12 12 11 11 11 11 12 12 13
5 3 6 3 3 4 5 2 2 4 2 3 2 4 4 1 2 4 3 4 6 4 4 5 5 6 7 6 6 6 6 6 5 6 6 8 11 13 14 15 16 17 18 19 20 20 20 21 21 21 21 20 19 19 19 19 19 19 18 18 17 17 16 15 14 14 13 12 12 11 11 12 13 13 13 13 13 13 13 13 13 13 13 12 13 13 13 13 13 13 12 12 12 13 14 14 15
4 4 4 4 3 1 2 3 2 2 3 4 3 3 3 4 4 4 5 8 9 8 6 6 7 8 7 6 6 6 6 6 5 6 5 7 11 14 15 16 16 17 18 19 21 21 22 22 22 23 23 22 22 21 21 21 20 20 20 19 19 17 17 16 15 15 15 15 15 15 14 15 15 14 13 13 13 12 12 12 12 12 12 13 13 13 13 13 13 13 13 13 14 15 16 16 16
2 1 2 3 3 4 3 3 4 4 4 4 2 1 3 6 6 7 10 12 12 10 9 9 10 9 8 7 7 7 7 7 6 6 5 7 12 14 16 17 17 18 19 20 21 22 22 23 23 24 23 23 23 22 22 22 21 21 21 21 20 19 18 19 18 18 18 18 17 16 16 15 15 14 13 13 12 12 12 12 12 13 13 13 13 13 13 13 13 13 14 15 15 16 16 17 17
1 2 3 1 1 3 2 2 3 4 4 3 2 2 5 6 4 8 11 11 11 11 11 10 9 9 8 8 8 8 7 7 6 6 6 8 13 15 16 18 18 19 19 20 22 22 23 23 23 24 24 24 24 23 23 23 23 23 23 23 22 21 22 21 20 20 19 19 18 17 16 15 14 14 13 12 13 13 13 12 12 12 12 12 12 12 13 13 13 14 14 15 15 16 17 17 18
3 4 6 6 3 4 3 3 2 2 3 4 5 3 7 6 4 6 8 8 8 9 10 9 8 9 9 8 9 8 7 7 7 7 7 9 14 16 17 18 18 19 20 21 22 23 23 24 24 24 25 25 25 25 25 25 25 25 25 25 24 23 22 21 21 20 20 19 18 17 16 14 14 14 13 12 12 12 11 11 11 11 11 12 13 13 14 14 14 15 15 15 16 17 18 19 20
Wind_Direction
18 344 323 311 302 315 296 140 49 322 84 289 257 135 246 172 106 95 67 61 67 28 64 100 55 57 94 108 121 101 54 345 241 164 178 148 147 146 142 149 152 142 134 127 124 111 104 106 110 118 117 116 112 104 98 92 91 91 92 96 99 99 98 97 96 94 94 94 91 88 85 87 87 84 82 83 85 84 84 84 84 84 82 80 78 78 78 78 79 80 81 84 85 87 93 95 97
343 313 319 321 308 347 276 113 82 326 52 317 279 152 174 43 62 90 95 86 102 152 101 82 60 68 102 123 120 86 47 12 60 110 98 130 141 142 144 152 150 140 134 129 123 110 108 108 113 124 122 121 119 110 99 93 92 90 93 97 100 99 97 96 94 92 92 93 92 91 88 88 87 85 86 87 87 84 84 86 85 85 83 81 79 79 79 80 80 80 81 84 85 89 96 98 101
336 318 333 342 316 155 307 45 98 303 59 219 269 261 113 83 89 109 109 108 125 127 93 69 58 68 94 90 60 59 75 13 79 90 105 131 137 142 146 151 146 140 135 131 123 112 110 109 116 127 129 127 122 115 109 108 99 93 99 100 101 99 97 95 93 93 91 92 92 92 92 91 90 90 91 90 87 87 87 88 87 85 82 79 80 81 81 82 83 83 82 84 87 92 100 101 104
328 325 329 349 16 40 45 51 168 150 92 205 219 287 102 112 126 113 111 117 121 105 81 65 52 18 75 86 79 72 108 110 109 110 124 145 146 145 146 147 143 140 137 132 122 114 110 110 116 129 135 131 123 114 114 119 108 98 104 103 100 99 99 96 93 92 92 94 95 96 95 94 94 93 92 91 88 88 89 90 92 90 84 81 81 82 82 83 83 83 82 85 89 95 103 104 106
319 326 312 334 62 21 93 84 99 103 204 196 153 240 136 128 130 116 113 102 91 89 84 85 76 9 65 84 115 97 117 123 136 130 126 148 147 142 145 145 143 140 137 130 122 116 111 113 117 132 138 133 125 117 115 116 107 99 104 106 100 99 99 96 90 89 92 96 97 98 96 95 96 93 92 93 92 89 89 90 94 93 86 84 83 82 82 83 83 83 83 85 88 94 105 109 109
330 341 311 285 125 150 100 18 327 315 243 179 124 181 157 131 130 122 105 73 46 67 79 88 103 86 70 31 61 86 176 136 136 135 134 145 144 141 144 145 142 139 136 130 124 116 114 115 120 134 140 136 130 125 120 113 106 100 103 105 102 100 100 95 90 90 93 96 97 97 95 96 95 94 94 95 93 92 92 89 91 91 86 84 84 83 82 82 83 83 83 83 86 90 101 111 113
337 344 336 49 357 57 103 205 234 250 278 137 127 155 153 135 133 121 109 79 23 31 55 88 115 96 76 102 69 24 81 137 131 135 143 144 142 141 146 146 143 140 137 133 125 117 116 115 121 134 141 139 135 133 127 117 109 103 98 97 101 103 102 98 94 94 95 98 101 100 98 98 96 95 97 97 96 96 93 87 89 90 88 86 84 84 84 84 83 84 84 84 86 89 99 111 115
334 317 42 82 7 6 110 191 226 193 13 55 131 146 146 146 139 120 122 114 83 60 49 82 102 89 28 74 89 15 77 126 131 137 144 142 141 144 150 149 143 142 141 135 127 119 117 117 123 132 141 143 138 137 132 121 112 107 100 94 101 105 106 104 99 97 97 100 103 104 100 98 99 98 101 101 98 94 92 89 89 90 89 89 88 87 86 86 86 86 87 86 87 91 101 110 117
352 183 14 76 66 324 350 197 237 206 85 82 130 145 146 147 134 118 116 111 136 135 128 149 95 97 100 68 90 26 81 120 132 138 143 143 144 147 154 152 145 143 141 137 131 124 120 121 123 127 137 142 141 139 136 128 117 116 117 111 110 109 107 103 101 100 99 102 103 104 99 100 103 102 105 104 99 98 99 96 92 89 89 92 92 90 88 88 89 89 88 88 85 89 101 109 118
12 117 57 82 85 305 299 298 228 215 163 136 133 146 148 141 125 119 117 121 137 123 156 138 94 113 130 88 87 107 107 122 133 139 143 145 145 149 154 153 148 143 142 140 134 128 123 124 123 124 132 136 141 143 142 136 127 127 128 121 115 110 105 97 100 103 103 106 107 107 103 103 105 105 108 105 100 100 101 100 94 88 86 90 95 95 93 91 90 89 89 90 86 85 96 107 118
18 332 84 100 48 257 263 245 212 211 162 126 51 135 142 132 113 110 113 114 124 122 149 82 99 125 107 95 337 134 137 130 133 141 144 144 146 151 152 151 151 146 145 143 137 131 127 129 127 124 127 132 139 143 146 144 137 134 130 124 119 112 106 104 106 103 105 112 115 117 112 109 111 113 115 110 104 98 95 96 95 93 89 89 95 97 96 96 95 94 94 93 89 85 90 101 113
51 310 76 116 185 218 224 162 197 185 102 95 34 296 111 113 108 121 122 121 133 113 146 120 125 135 91 102 251 143 145 140 136 142 144 143 146 152 151 150 152 149 147 144 140 136 132 135 134 129 126 129 138 144 149 150 145 138 136 133 127 118 113 117 115 106 109 118 121 125 124 121 121 120 119 115 113 109 102 99 97 95 94 93 92 94 97 99 101 100 98 91 87 87 89 93 100
159 202 98 167 203 204 203 150 190 137 103 180 180 251 82 93 114 146 135 127 140 112 175 206 130 107 93 115 177 146 150 150 141 142 148 144 143 146 147 149 151 151 148 146 145 142 138 139 139 135 130 130 137 143 147 152 152 145 142 139 129 123 118 117 114 114 117 118 118 124 131 132 128 123 120 119 123 121 114 112 109 103 101 99 93 93 98 101 101 100 97 93 91 91 89 87 89
195 188 119 207 262 242 190 146 195 134 160 229 184 214 74 68 106 139 122 107 124 138 176 201 114 96 99 126 148 195 162 157 150 150 152 146 144 143 144 148 150 150 149 151 151 148 144 142 143 141 137 133 134 138 143 150 152 145 141 138 133 129 124 113 109 116 118 114 110 114 130 138 138 132 125 123 129 129 124 123 121 119 114 98 89 90 98 100 101 101 97 98 96 95 92 87 85
181 200 102 165 304 301 222 165 178 141 167 204 183 153 87 57 93 90 110 120 132 218 123 81 107 107 153 161 179 204 166 161 160 157 151 146 149 147 145 145 146 149 150 154 154 152 150 147 146 146 146 139 134 134 136 143 146 142 139 140 140 137 131 116 107 111 113 107 98 102 123 141 147 142 133 132 137 139 135 133 131 136 133 104 91 95 102 102 100 102 99 94 89 89 89 88 87
141 96 68 31 259 259 248 171 138 127 186 201 180 129 95 14 49 84 114 136 116 328 51 51 24 106 160 167 173 171 160 162 164 157 148 147 148 146 146 144 146 152 153 156 156 155 154 153 149 148 150 145 139 136 135 138 139 141 140 142 145 145 139 120 108 106 104 98 95 94 103 133 152 153 147 143 145 152 150 143 143 146 138 113 107 111 110 107 105 100 95 89 86 86 80 75 75
80 77 72 275 242 211 233 174 156 158 184 193 181 124 112 39 11 94 42 88 103 67 55 34 25 62 140 153 156 156 154 162 164 154 144 145 146 143 144 144 148 156 160 163 161 160 158 157 153 148 149 148 142 139 140 139 137 138 139 141 145 150 147 132 115 105 100 100 100 94 87 102 135 153 156 145 143 155 164 163 161 163 144 107 121 128 118 110 107 99 93 90 89 87 76 65 61
76 97 147 237 225 200 225 186 179 157 151 173 180 144 126 138 146 135 68 74 95 82 64 56 51 47 91 130 144 147 152 162 164 159 145 143 147 145 147 149 152 158 164 166 165 167 164 160 159 151 150 151 144 142 146 142 142 141 139 142 144 150 152 145 129 111 110 110 107 100 93 90 100 119 131 150 151 152 161 164 159 160 145 106 114 128 121 114 110 104 99 95 93 91 76 65 60
129 146 161 226 215 213 261 179 162 140 150 162 172 162 139 159 167 132 113 121 113 92 64 65 75 67 92 123 139 144 153 161 167 168 154 148 154 152 152 155 158 161 165 168 168 173 172 165 165 156 155 161 154 149 151 147 151 151 148 148 145 149 152 150 139 123 122 119 114 110 111 119 98 75 72 136 163 165 167 162 156 149 130 114 118 122 123 120 117 111 106 100 95 92 77 67 62
170 144 166 243 225 228 337 330 163 148 149 150 170 175 145 168 163 131 140 144 137 132 137 109 113 131 123 129 141 145 154 162 169 174 164 157 160 160 160 162 163 165 168 171 171 175 179 173 168 160 163 174 171 164 161 152 158 159 154 156 154 155 155 151 144 134 131 129 124 123 147 162 175 323 15 111 147 162 180 171 160 148 134 133 134 130 130 127 121 116 114 114 105 99 89 68 56
193 154 185 241 199 134 323 321 146 141 140 144 155 134 135 176 155 129 135 135 176 186 179 164 155 156 149 147 148 150 157 163 171 176 172 163 163 166 168 171 171 171 171 172 176 179 183 179 173 166 170 180 180 177 173 159 161 159 150 151 151 154 162 157 149 143 137 137 134 136 166 174 201 253 289 240 135 124 136 166 171 156 142 141 145 148 153 146 134 134 130 138 136 133 137 102 178
217 202 193 236 163 136 263 298 358 138 129 122 130 126 145 163 135 135 136 147 213 209 193 166 157 158 156 156 154 155 160 168 173 177 181 172 169 172 173 176 176 177 178 178 180 182 184 182 178 174 176 183 187 186 181 169 166 163 154 151 148 149 162 165 158 162 151 147 148 147 166 193 224 227 249 206 152 120 102 140 173 169 147 129 148 171 173 158 150 178 168 185 220 232 237 246 228
207 238 192 290 178 150 210 298 316 135 123 130 145 149 141 126 144 148 133 172 206 208 204 162 156 157 154 153 156 161 167 175 179 182 186 180 176 179 179 181 180 181 183 184 183 182 185 184 181 181 182 186 188 186 183 177 173 172 169 164 165 168 171 179 172 181 179 161 164 169 178 213 227 208 195 200 170 133 118 139 175 181 153 122 262 251 246 226 266 264 251 245 256 275 286 279 260
186 242 228 343 68 132 174 77 16 114 125 156 145 131 133 136 162 132 116 182 201 211 171 142 147 148 149 154 163 170 174 179 184 186 189 187 181 182 186 187 187 186 185 185 184 183 187 187 184 183 185 189 187 182 181 183 180 180 187 181 181 188 182 191 198 191 194 178 180 189 191 204 213 212 206 207 199 180 199 209 222 246 249 285 272 259 262 265 271 269 268 271 273 276 277 275 273
200 219 208 150 83 3 263 88 78 95 117 132 105 105 152 159 150 127 156 186 194 149 107 123 138 143 151 162 169 172 176 180 185 186 190 194 188 186 190 189 190 190 186 185 185 188 190 190 188 185 186 189 189 183 182 186 185 186 194 191 191 198 194 198 208 202 205 203 201 208 202 189 195 215 222 228 220 208 219 225 228 251 264 269 267 258 259 267 268 266 264 268 273 273 274 276 275
210 185 167 158 146 184 195 84 86 93 97 106 101 99 156 190 135 118 183 186 184 132 117 128 137 145 158 166 171 174 177 182 186 187 188 193 195 198 194 188 190 193 189 187 189 192 191 192 192 190 191 192 191 187 184 188 192 193 194 193 196 198 196 195 200 209 222 230 229 226 212 196 191 206 225 242 240 218 214 220 227 235 246 256 262 262 263 267 268 268 268 267 272 274 276 277 278
183 142 117 133 147 173 178 104 108 97 63 96 116 135 182 321 95 175 211 185 166 124 127 143 144 154 166 167 176 178 181 186 188 188 187 190 198 204 198 188 190 192 190 189 191 193 192 194 196 196 197 197 195 192 189 192 197 198 196 200 203 202 201 198 196 208 225 233 239 240 228 207 200 202 217 236 247 236 220 223 229 232 239 249 256 260 261 265 268 269 270 272 274 275 278 277 277
137 122 86 89 130 98 104 114 133 106 77 106 113 115 350 4 71 210 200 176 161 133 142 159 156 164 170 171 179 181 186 189 188 188 190 193 197 201 199 190 188 190 191 190 190 192 193 196 198 199 199 199 200 198 195 196 200 199 199 204 210 212 214 206 198 203 217 225 229 231 236 224 212 209 209 221 238 238 232 233 237 240 242 246 252 258 260 263 265 265 266 270 273 275 277 277 276
137 128 106 140 66 75 136 143 161 113 128 184 117 76 325 290 233 232 180 161 154 140 156 173 171 173 172 174 178 183 189 187 187 191 196 198 197 197 198 194 190 190 192 192 192 193 196 197 198 200 200 202 203 201 199 200 203 204 202 206 212 216 219 213 203 202 210 217 224 228 228 230 227 220 213 211 222 230 234 238 244 247 248 248 252 256 260 263 263 263 264 266 270 273 273 276 276
145 129 122 142 64 87 214 182 128 104 128 217 119 109 275 247 242 239 167 153 143 144 174 187 188 186 175 176 176 185 189 184 188 194 198 200 199 198 198 198 196 193 192 192 194 195 199 200 199 199 199 202 205 204 202 201 204 207 209 209 211 216 219 219 214 208 210 215 226 232 231 231 231 228 219 214 218 225 229 235 242 249 253 253 253 256 259 262 265 265 266 267 269 271 272 275 274
140 121 125 140 135 221 251 183 132 122 215 88 101 158 258 265 250 223 177 158 151 162 191 192 197 200 184 181 177 184 190 187 192 196 197 199 200 200 199 200 201 200 195 193 196 198 200 201 201 200 200 202 205 207 206 203 205 208 212 211 209 214 217 221 223 218 215 216 223 230 233 234 234 235 227 221 223 229 234 238 241 245 252 255 254 255 258 262 266 269 271 272 274 275 276 279 278
136 140 191 182 157 208 276 233 152 143 219 77 106 186 267 272 244 226 191 159 156 170 193 196 198 200 189 185 181 184 194 194 195 196 197 198 199 200 201 201 201 203 202 197 198 199 200 202 204 203 203 203 206 210 211 208 208 210 213 214 213 216 218 223 227 226 223 220 222 225 228 233 237 241 239 229 227 236 244 247 248 246 250 256 257 256 256 261 266 272 275 276 279 281 282 283 283
190 137 173 190 159 172 236 275 201 153 142 120 133 169 255 260 229 233 214 166 162 173 196 201 198 199 189 183 185 185 192 199 199 199 198 198 199 201 201 202 202 204 205 202 199 199 200 202 204 206 206 207 208 210 212 212 212 214 215 216 219 219 219 225 230 229 226 225 227 227 228 232 236 240 239 231 230 239 242 247 253 251 252 257 259 258 257 263 270 275 280 281 280 281 282 282 284
219 116 152 193 161 157 173 275 248 149 136 192 173 166 243 268 230 218 223 186 174 191 210 207 198 196 192 186 186 187 191 198 202 200 199 199 200 201 201 202 202 203 204 204 202 201 202 203 204 207 208 210 209 208 211 213 213 214 216 219 223 221 220 225 231 231 229 229 232 234 236 238 242 244 242 240 243 244 242 247 254 253 252 255 258 259 259 265 273 276 278 280 279 278 279 281 284
170 156 147 168 149 160 176 204 214 160 150 188 175 207 250 279 274 231 238 207 185 205 211 201 196 193 191 190 191 194 196 203 207 202 200 200 200 200 201 202 202 202 202 203 204 202 202 203 205 208 209 210 210 208 209 213 214 215 216 220 224 225 222 224 229 231 231 233 235 237 240 244 250 251 251 258 262 255 251 254 256 255 252 251 256 259 258 262 269 274 277 280 283 281 280 281 284
170 173 148 151 157 195 201 215 237 156 140 188 186 208 232 247 261 247 246 221 199 223 221 201 199 193 190 191 195 198 198 211 212 204 201 201 200 199 199 200 202 202 202 202 202 202 202 202 204 206 209 209 208 208 207 210 213 215 219 222 225 227 226 226 228 230 233 236 238 241 244 246 250 252 253 261 265 264 268 266 263 263 259 255 256 257 260 264 270 275 278 282 285 285 283 281 281
166 162 150 160 155 192 237 235 289 126 132 213 200 206 235 229 238 240 230 210 210 235 234 220 208 193 192 192 195 199 203 216 212 205 203 200 199 197 196 197 198 199 201 202 202 203 203 203 204 206 208 208 206 206 206 206 208 210 214 218 222 225 227 230 231 232 235 237 240 243 247 249 252 253 254 259 261 267 273 272 268 264 267 268 265 265 269 272 276 277 278 279 280 280 281 283 284
176 170 168 187 166 180 243 203 278 30 143 233 203 206 250 241 238 244 208 184 216 222 214 219 216 204 197 191 197 199 197 202 192 198 201 197 196 194 194 194 195 197 198 200 202 203 204 205 206 207 207 206 206 206 207 207 208 208 210 215 220 223 227 231 235 239 242 244 245 247 251 253 256 257 258 263 268 268 265 267 274 270 269 274 275 278 278 276 278 276 276 276 276 275 277 284 289
195 185 170 201 197 159 348 338 331 28 142 256 222 199 249 257 248 247 200 188 215 213 203 206 201 201 202 194 198 189 170 171 165 177 188 190 191 191 192 194 196 199 198 200 202 203 204 205 208 208 206 205 206 208 208 209 211 213 215 218 220 223 228 232 237 243 247 249 249 250 255 257 261 263 263 266 271 270 265 268 279 274 270 273 276 278 276 275 277 277 276 273 271 271 274 283 287
186 184 176 198 192 157 199 280 318 38 118 174 108 187 269 279 270 260 217 202 217 214 212 216 201 198 205 199 191 180 172 175 174 170 175 178 182 186 190 193 194 196 196 197 201 202 203 204 206 207 206 206 207 209 210 212 214 216 219 222 224 226 231 233 236 241 245 248 246 247 252 256 261 264 266 268 269 270 268 269 275 274 275 278 279 278 274 274 276 278 279 273 269 271 276 282 283
209 184 184 181 178 175 175 167 135 25 16 91 85 23 305 258 240 255 233 203 222 218 207 218 220 197 185 161 160 176 179 176 177 185 184 177 178 183 188 190 192 194 196 197 199 202 203 204 205 207 207 207 208 209 210 211 212 213 214 218 222 223 225 226 224 228 233 235 238 241 245 252 260 264 264 266 267 269 270 270 274 276 274 272 273 275 276 279 280 279 277 273 273 277 277 278 280
242 200 194 175 168 151 123 128 106 59 331 278 112 62 295 271 233 241 229 185 210 212 193 200 207 191 167 163 170 174 178 179 176 180 186 187 188 190 192 193 194 197 199 201 202 204 205 205 204 206 207 208 209 209 209 209 208 208 207 208 211 210 206 205 204 206 210 218 233 245 249 255 261 266 271 271 272 276 281 282 283 283 278 273 274 278 282 284 281 278 277 277 283 282 275 272 273
221 234 190 153 142 127 132 138 112 123 221 268 113 148 257 311 278 244 221 194 211 222 217 219 219 210 194 195 200 180 174 183 162 152 169 181 188 190 195 201 203 204 203 203 206 208 208 207 204 205 207 208 208 208 207 207 207 206 206 207 207 201 196 194 200 208 217 227 234 236 237 237 240 248 262 270 272 276 282 285 287 287 285 289 293 293 295 295 291 289 285 284 286 282 273 267 269
216 236 143 131 131 136 148 142 120 167 182 355 37 127 207 290 278 263 186 178 220 248 239 246 241 223 209 201 199 178 181 189 174 167 168 172 181 187 193 201 207 210 207 204 204 205 207 208 205 205 206 206 207 206 206 206 206 206 207 209 208 205 202 201 207 212 214 219 219 212 208 208 216 230 242 255 267 275 282 284 288 289 287 296 305 307 312 313 314 311 298 292 293 289 282 275 275
230 205 135 135 137 141 145 129 108 113 113 328 297 139 162 266 277 314 94 160 222 240 232 237 229 218 204 189 178 166 176 184 179 181 168 158 171 182 187 191 198 204 205 203 199 197 199 201 202 202 202 203 203 202 203 204 205 205 205 207 207 206 205 201 202 204 205 211 216 213 208 209 218 231 238 246 258 269 279 281 282 284 284 289 293 297 307 311 317 320 315 313 312 308 302 291 287
200 140 101 85 86 99 106 112 102 71 99 228 251 192 156 267 281 319 82 184 223 230 235 231 218 211 193 177 169 162 152 141 153 160 150 142 149 163 171 176 185 194 198 199 195 191 190 190 193 195 196 197 197 196 199 201 203 204 204 203 200 194 191 194 197 199 200 205 213 219 222 229 239 244 247 252 263 277 291 293 289 286 286 289 289 289 294 298 303 308 312 316 319 323 320 312 307
131 98 77 61 44 53 59 60 89 91 249 244 247 223 133 257 278 228 196 217 206 206 234 224 206 203 189 176 171 169 151 137 142 142 142 138 142 155 165 172 178 184 191 194 191 186 183 183 184 185 186 188 189 190 194 197 200 204 204 201 195 189 189 196 203 204 207 212 217 224 230 239 248 254 254 257 274 294 317 324 316 312 307 309 310 307 304 302 300 298 298 299 304 313 318 320 320
103 91 102 89 23 17 27 3 52 137 242 258 260 279 130 199 261 241 237 251 205 186 204 201 190 189 185 181 178 175 167 156 150 145 145 139 137 148 157 162 165 168 175 181 184 181 176 176 178 176 177 180 182 183 186 189 192 196 199 196 193 193 196 201 206 211 222 228 221 212 206 207 209 185 162 196 243 270 281 288 291 295 297 301 308 316 318 319 319 313 308 304 303 304 308 313 317
87 117 124 109 60 26 55 272 256 204 241 269 278 280 183 227 252 252 261 264 231 210 207 189 179 179 181 181 176 171 165 159 157 156 152 142 140 146 150 151 155 161 163 164 171 174 170 170 172 170 169 174 177 177 178 179 180 182 186 186 186 190 193 195 199 205 212 211 196 187 188 183 178 173 177 198 235 271 281 280 282 286 287 290 292 296 302 313 328 335 333 331 328 324 319 316 313
126 146 140 131 129 111 191 237 267 230 249 277 284 272 243 264 267 252 247 250 259 253 213 177 170 172 172 169 157 149 152 154 158 154 148 148 144 144 145 146 150 157 160 159 161 166 166 163 165 165 162 167 172 172 174 174 170 172 176 179 181 181 181 183 189 194 193 185 178 176 174 168 166 169 188 223 265 288 294 296 304 308 308 313 313 310 308 311 324 333 333 335 336 334 332 329 322
167 164 136 143 154 148 184 206 190 205 253 285 281 243 188 199 258 256 250 269 314 327 153 138 139 147 145 140 129 131 140 143 143 135 132 137 135 135 138 139 141 147 157 160 159 162 163 162 163 162 157 159 165 167 171 171 167 168 172 175 179 181 180 181 181 178 174 170 168 166 160 161 165 166 172 167 51 60 67 67 63 60 56 47 39 31 20 5 353 346 340 340 341 337 338 337 332
225 144 114 157 175 144 147 176 172 164 139 261 235 230 207 202 264 276 307 358 20 46 89 110 118 130 133 138 143 144 146 146 140 128 124 126 125 128 131 133 133 135 145 154 156 161 165 165 167 165 160 161 164 166 170 173 174 174 174 173 174 173 171 169 163 159 161 163 164 161 153 150 146 127 107 91 81 78 76 72 68 65 62 58 54 49 46 41 33 27 19 12 7 358 353 350 344
193 119 161 205 160 118 119 175 131 101 135 237 209 243 286 311 278 280 354 9 349 61 102 132 145 149 147 159 168 161 158 156 147 138 135 127 122 125 128 130 131 129 134 143 148 155 159 159 162 163 162 163 165 167 168 167 167 165 163 161 159 158 158 159 158 156 156 155 150 144 132 120 109 98 92 88 82 78 75 71 68 65 62 58 54 51 47 44 39 35 29 24 18 11 6 2 358
120 156 198 188 97 89 110 138 21 66 174 262 219 214 268 283 247 291 311 256 243 230 200 172 168 168 166 176 181 172 164 157 147 138 133 126 123 124 127 128 129 129 132 138 143 147 149 149 150 150 151 152 154 157 156 154 155 154 154 155 155 156 158 158 155 150 146 141 132 123 115 105 97 91 88 85 81 79 75 71 68 65 61 57 53 49 44 41 37 32 28 23 16 11 9 6 3
133 180 180 119 131 201 125 141 161 154 203 269 271 237 239 205 214 248 238 232 231 224 213 197 192 187 180 179 178 171 159 151 147 140 133 129 127 127 128 129 130 131 133 136 141 145 146 147 148 146 145 146 149 151 151 152 153 153 152 154 155 155 154 149 142 137 133 126 119 114 109 102 96 93 89 85 81 77 74 71 67 63 58 53 48 44 39 35 31 27 23 19 13 7 5 3 1
51 85 88 81 136 169 172 163 155 159 193 234 270 306 256 229 213 194 207 220 212 204 204 202 199 192 184 177 172 171 167 164 160 152 146 136 133 131 133 134 134 135 136 138 142 144 144 146 147 145 144 145 147 149 150 149 150 149 147 147 148 145 139 133 129 129 124 117 113 111 107 102 100 96 91 86 79 73 68 63 59 55 51 48 42 37 32 27 24 21 16 12 8 5 1 358 356
129 125 158 191 118 129 161 184 137 133 161 194 195 252 263 251 207 189 209 221 210 198 198 202 198 190 187 180 174 174 172 170 162 152 147 138 135 134 135 137 137 137 137 139 142 142 142 144 145 145 145 145 145 146 146 144 143 143 141 139 138 134 131 128 127 125 119 115 113 110 107 104 100 95 88 82 73 65 60 54 50 47 44 40 35 29 24 19 17 16 14 10 6 3 0 356 352
160 170 184 185 159 127 150 221 237 121 145 176 166 218 269 258 200 203 224 231 219 202 194 195 192 188 188 183 179 177 169 167 162 153 149 143 140 138 137 138 138 138 137 138 140 141 141 142 143 144 144 145 145 144 143 140 139 138 136 134 133 131 130 128 126 122 117 115 112 108 105 101 96 89 81 75 66 59 53 46 42 41 38 36 32 27 23 19 16 13 10 8 5 0 357 353 350